map of SCV home
Great Circle Mapper logo
SCV - Airport
Location
City:  Suceava, Romania
Name:Salcea
ICAO / IATA:LRSV / SCV

Details
Type:Airport (Aerodrome, Airfield)
Use:Public/Civil
Latitude:4741'15"N (47.687500)
Longitude:2621'15"E (26.354056)
Datum:WGS 1984
Elevation:1375 ft (419 m)
Variation:5.7E (WMM2010 magnetic declination)
Runways:1
Longest:5906 × 98 ft (1800 × 30 m), paved

Time
Time Zone:UTC+2 (DST+3)
Local Time:

Weather
METAR:LRSV 290930Z 01004KT 340V080 9000 SCT042 M03/M03 Q1026

Related Locations
Nearby:
Farthest:CHT: 11309 mi / 18200 km
Waitangi [Tuuta], Chatham Islands, NZ

Find:

   beyond  
but within

Other Information
Maps:
NOTAMs:
Links:
Sources:

  
flag of Romania   

Sectional Chart

Flight Planning
at skyvector.com

Satellite Image

Google Maps Satellite View

 

Copyright © 2004-2014 Karl L. Swartz. All rights reserved.
The Great Circle Mapper name and logo are trademarks of the Great Circle Mapper.
All other trademarks mentioned herein belong to their respective owners.
Please see credits for attibutions and further copyright information.

  Follow gcmap on Facebook Follow gcmap on Twitter

hCard Microformat

Geo Microformat